Weather History for Edwards AFB North Base, CA

Change the Weather History Date:

Tuesday, August 20, 2013

  Actual Average (KEDW) Record (KEDW)
Temperature  
Mean Temperature 82 °F -  
Max Temperature 98 °F 96 °F 102 °F (2012)
Min Temperature 66 °F 63 °F 55 °F (1998)
Cooling Degree Days 17    
Growing Degree Days 32 (Base 50)    
Moisture  
Dew Point 47 °F    
Average Humidity 37    
Maximum Humidity 75    
Minimum Humidity 10    
Precipitation  
Precipitation 0.00 in - - ()
Sea Level Pressure  
Sea Level Pressure 29.85 in    
Wind  
Wind Speed 4 mph (SW)    
Max Wind Speed 17 mph    
Max Gust Speed 25 mph    
Visibility 10 miles    
Events      
Averages and records for this station are not official NWS values.
T = Trace of Precipitation, MM = Missing Value Source: NWS Daily Summary

Daily Weather History Graph

Daily Weather History Graph

Search for Another Location

Airport:

Trip Planner

Search our weather history database for the weather conditions in past years. The results will help you decide how hot, cold, wet, or windy it might be!

Date:

Astronomy

Aug. 20, 2013 Rise Set
Actual Time 6:15 AM PDT 7:33 PM PDT
Civil Twilight 5:49 AM PDT 7:59 PM PDT
Nautical Twilight 5:17 AM PDT 8:31 PM PDT
Astronomical Twilight 4:44 AM PDT 9:04 PM PDT
Moon 7:10 PM PDT (8/20) 5:49 AM PDT (8/20)
Length of Visible Light 14h 10m
Length of Day
13h 17m
Full, 100% of the Moon is Illuminated
Aug 20
Full
Aug 20
Full
Aug 28
Last Quarter
Sep 5
New
Sep 12
First Quarter

Hourly Weather History & Observations

Time (PDT) Temp. Dew Point Humidity Pressure Visibility Wind Dir Wind Speed Gust Speed Precip Events Conditions
12:55 AM 72.0 °F 59.0 °F 64% 29.87 in 10.0 mi Calm Calm - N/A   Clear
1:55 AM 69.1 °F 61.0 °F 75% 29.86 in 10.0 mi SSW 3.5 mph - N/A   Clear
2:55 AM 69.1 °F 55.0 °F 61% 29.86 in 10.0 mi Calm Calm - N/A   Clear
3:55 AM 68.0 °F 57.0 °F 68% 29.86 in 10.0 mi Calm Calm - N/A   Clear
4:55 AM 66.0 °F 57.0 °F 73% 29.87 in 10.0 mi South 3.5 mph - N/A   Clear
5:55 AM 66.0 °F 55.9 °F 70% 29.87 in 10.0 mi Calm Calm - N/A   Clear
6:55 AM 66.0 °F 57.0 °F 73% 29.88 in 10.0 mi Calm Calm - N/A   Clear
7:55 AM 71.1 °F 57.0 °F 61% 29.89 in 10.0 mi Calm Calm - N/A   Clear
8:55 AM 75.0 °F 53.1 °F 46% 29.90 in 10.0 mi SSE 3.5 mph - N/A   Clear
9:55 AM 80.1 °F 52.0 °F 38% 29.90 in 10.0 mi SSE 3.5 mph - N/A   Clear
10:55 AM 84.9 °F 51.1 °F 31% 29.89 in 10.0 mi Calm Calm - N/A   Clear
12:55 PM 93.0 °F 50.0 °F 23% 29.86 in 10.0 mi SE 4.6 mph - N/A   Clear
1:55 PM 95.0 °F 48.9 °F 21% 29.84 in 10.0 mi Variable 6.9 mph - N/A   Clear
2:55 PM 96.1 °F 45.0 °F 17% 29.82 in 10.0 mi Variable 4.6 mph - N/A   Clear
3:55 PM 98.1 °F 41.0 °F 14% 29.80 in 10.0 mi Variable 3.5 mph - N/A   Clear
4:55 PM 98.1 °F 35.1 °F 11% 29.79 in 10.0 mi SW 8.1 mph - N/A   Clear
5:55 PM 96.1 °F 30.0 °F 10% 29.80 in 10.0 mi WSW 17.3 mph 25.3 mph N/A   Clear
6:55 PM 91.9 °F 34.0 °F 13% 29.81 in 10.0 mi West 15.0 mph 23.0 mph N/A   Clear
7:55 PM 87.1 °F 43.0 °F 21% 29.82 in 10.0 mi West 10.4 mph - N/A   Clear
8:55 PM 84.9 °F 37.0 °F 18% 29.84 in 10.0 mi West 10.4 mph - N/A   Clear
9:55 PM 84.9 °F 36.0 °F 17% 29.84 in 10.0 mi WSW 16.1 mph - N/A   Clear
10:55 PM 82.9 °F 36.0 °F 19% 29.85 in 10.0 mi SW 12.7 mph 24.2 mph N/A   Clear
11:55 PM 82.9 °F 35.1 °F 18% 29.85 in 10.0 mi SW 4.6 mph - N/A   Clear